Regional Weather Roundup
Issued by NWS

Home | Current Version | Previous Version | Graphics & Text | Print | Product List | Glossary On
Versions: 1 2 3 4 5 6 7 8 9 10 11 12 13 14 15 16 17 18 19 20 21 22 23 24 25 26 27 28 29 30 31 32 33 34 35 36 37 38 39 40 41 42 43 44 45 46 47 48 49 50
000
ASUS43 KFSD 270602
RWRSD

WEATHER ROUNDUP FOR SOUTH DAKOTA
NATIONAL WEATHER SERVICE SIOUX FALLS SD
100 AM CDT TUE SEP 27 2016

NOTE: "FAIR" INDICATES FEW OR NO CLOUDS BELOW 12,000 FEET WITH NO
SIGNIFICANT WEATHER AND/OR OBSTRUCTIONS TO VISIBILITY.


SDZ001>005-009-010-012>017-270700-
NORTHWEST AND NORTH CENTRAL SOUTH DAKOTA

CITY           SKY/WX    TMP DP  RH WIND       PRES   REMARKS
BUFFALO          N/A     49  41  74 SW8       30.07F
FAITH            N/A     53  41  63 W6        30.12F
MOBRIDGE       CLEAR     43  36  76 CALM      30.05F
$$

SDZ012>016-024>037-041>051-057-063-072>074-270700-
SOUTHWEST AND SOUTH CENTRAL SOUTH DAKOTA

CITY           SKY/WX    TMP DP  RH WIND       PRES   REMARKS
RAPID CTY ARPT CLOUDY    47  41  80 NW5       30.17F
PIERRE         CLEAR     51  41  68 W7        30.08F
CUSTER         CLOUDY    50  39  66 SW7       30.25F
ELLSWORTH AFB  PTCLDY    51  41  68 W5        30.16F
PHILIP         CLOUDY    46  40  79 W7        30.12F
PINE RIDGE     CLOUDY    40  36  86 E3        30.19F
WINNER         FAIR      50  40  68 SW6       30.12S
$$

SDZ004>011-016>023-039-040-270700-
NORTHEAST SOUTH DAKOTA

CITY           SKY/WX    TMP DP  RH WIND       PRES   REMARKS
ABERDEEN       CLEAR     40  35  83 W5        30.03S
WATERTOWN      CLEAR     51  38  60 NW10      30.00F
SISSETON         N/A     52  36  54 NW10      29.96S
$$

SDZ017-020-022-023-036>040-048>070-270700-
SOUTHEAST SOUTH DAKOTA

CITY           SKY/WX    TMP DP  RH WIND       PRES   REMARKS
SIOUX FALLS    CLEAR     49  36  61 W6        30.03S
HURON          CLEAR     45  35  68 W6        30.05S
CHAMBERLAIN    CLEAR     49  42  78 W5        30.10S
MITCHELL       CLEAR     50  37  61 W7        30.07S
YANKTON        CLEAR     48  41  76 W7        30.05S
$$

ABBREVIATIONS USED IN REMARKS
   TC - TEMPERATURE IN CELSIUS
  WCI - WIND CHILL INDEX
   HX - HEAT INDEX
  VSB - VISIBILITY




USA.gov is the U.S. government's official web portal to all federal, state and local government web resources and services.